Visibility
15.0 15.0 15.0 15.0 15.0 15.0 15.0 15.0 15.0 15.0 15.0 15.0 15.0 15.0 15.0 15.0 15.0 15.0 15.0 15.0 15.0 15.0 15.0 15.0 15.0 15.0 15.0 15.0 15.0 15.0 15.0 15.0 15.0 15.0 15.0 15.0 15.0 15.0 15.0 15.0 15.0 15.0 15.0 15.0
15.0 15.0 15.0 15.0 15.0 15.0 15.0 15.0 15.0 15.0 15.0 15.0 15.0 15.0 15.0 15.0 15.0 15.0 15.0 15.0 15.0 15.0 15.0 15.0 15.0 15.0 15.0 15.0 15.0 15.0 15.0 15.0 15.0 15.0 15.0 15.0 15.0 15.0 15.0 15.0 15.0 15.0 15.0 15.0
15.0 15.0 15.0 15.0 15.0 15.0 15.0 15.0 15.0 15.0 15.0 15.0 15.0 15.0 15.0 15.0 15.0 15.0 15.0 15.0 15.0 15.0 15.0 15.0 15.0 15.0 15.0 15.0 15.0 15.0 15.0 15.0 15.0 15.0 15.0 15.0 15.0 15.0 15.0 15.0 15.0 15.0 15.0 15.0
15.0 15.0 15.0 15.0 15.0 15.0 15.0 15.0 15.0 15.0 15.0 15.0 15.0 15.0 15.0 15.0 15.0 15.0 15.0 15.0 15.0 15.0 15.0 15.0 15.0 15.0 15.0 15.0 15.0 15.0 15.0 15.0 15.0 15.0 15.0 15.0 15.0 15.0 15.0 15.0 4.7 0.0 1.2 15.0
15.0 15.0 15.0 15.0 15.0 15.0 15.0 15.0 15.0 15.0 15.0 15.0 15.0 15.0 15.0 15.0 15.0 15.0 15.0 15.0 15.0 15.0 15.0 15.0 15.0 15.0 15.0 15.0 15.0 15.0 15.0 15.0 15.0 15.0 15.0 15.0 15.0 15.0 12.8 0.0 0.0 13.2 15.0 15.0
3.5 15.0 15.0 15.0 15.0 15.0 15.0 15.0 15.0 15.0 15.0 15.0 15.0 15.0 15.0 15.0 15.0 15.0 15.0 15.0 15.0 15.0 15.0 15.0 15.0 15.0 15.0 15.0 15.0 15.0 15.0 15.0 15.0 15.0 15.0 15.0 15.0 15.0 1.5 15.0 15.0 15.0 15.0 15.0
3.1 15.0 15.0 15.0 15.0 15.0 15.0 15.0 15.0 15.0 15.0 15.0 15.0 15.0 15.0 15.0 15.0 15.0 15.0 15.0 15.0 15.0 15.0 15.0 15.0 15.0 15.0 15.0 15.0 15.0 15.0 15.0 15.0 15.0 15.0 15.0 15.0 15.0 0.0 0.1 15.0 15.0 15.0 15.0
9.9 14.6 15.0 15.0 15.0 15.0 15.0 15.0 15.0 15.0 15.0 15.0 15.0 15.0 15.0 15.0 15.0 15.0 15.0 15.0 15.0 15.0 15.0 15.0 15.0 15.0 15.0 15.0 15.0 15.0 15.0 15.0 15.0 15.0 15.0 15.0 15.0 15.0 15.0 15.0 15.0 15.0 13.2 15.0
15.0 15.0 15.0 15.0 15.0 15.0 15.0 15.0 15.0 15.0 15.0 15.0 15.0 15.0 15.0 15.0 15.0 15.0 15.0 15.0 15.0 15.0 15.0 15.0 15.0 15.0 15.0 15.0 15.0 15.0 15.0 15.0 15.0 15.0 15.0 15.0 15.0 15.0 15.0 15.0 15.0 15.0 12.0 5.5
15.0 15.0 15.0 15.0 15.0 15.0 15.0 15.0 15.0 15.0 15.0 15.0 15.0 15.0 15.0 15.0 15.0 15.0 15.0 15.0 15.0 15.0 15.0 15.0 15.0 15.0 15.0 15.0 15.0 15.0 15.0 15.0 15.0 15.0 15.0 15.0 15.0 15.0 15.0 15.0 9.4 15.0 6.2 6.0
15.0 15.0 15.0 15.0 15.0 15.0 15.0 15.0 15.0 15.0 15.0 15.0 15.0 15.0 15.0 15.0 15.0 15.0 15.0 15.0 15.0 15.0 15.0 15.0 15.0 15.0 15.0 15.0 15.0 15.0 15.0 15.0 15.0 15.0 15.0 15.0 15.0 15.0 15.0 15.0 15.0 15.0 13.8 14.2
15.0 15.0 15.0 15.0 15.0 15.0 15.0 15.0 15.0 15.0 15.0 15.0 15.0 15.0 15.0 15.0 15.0 15.0 15.0 15.0 15.0 15.0 15.0 15.0 15.0 15.0 15.0 15.0 15.0 15.0 11.0 8.6 15.0 14.6 14.9 15.0 15.0 15.0 15.0 15.0 15.0 15.0 15.0 13.3
15.0 15.0 15.0 15.0 15.0 15.0 15.0 15.0 15.0 15.0 15.0 15.0 15.0 15.0 15.0 15.0 15.0 15.0 15.0 15.0 15.0 15.0 15.0 15.0 15.0 15.0 15.0 15.0 15.0 15.0 15.0 14.7 15.0 9.5 14.6 15.0 15.0 15.0 15.0 15.0 15.0 15.0 15.0 15.0
15.0 15.0 15.0 15.0 15.0 15.0 15.0 15.0 15.0 15.0 15.0 15.0 15.0 15.0 15.0 15.0 15.0 15.0 15.0 15.0 15.0 15.0 15.0 15.0 15.0 15.0 15.0 15.0 15.0 12.2 15.0 15.0 11.1 5.3 5.4 15.0 9.0 12.7 14.5 8.1 4.6 6.9 14.8 15.0
15.0 15.0 15.0 15.0 15.0 15.0 15.0 15.0 15.0 12.2 15.0 15.0 15.0 15.0 15.0 15.0 15.0 15.0 15.0 15.0 15.0 15.0 15.0 15.0 15.0 15.0 15.0 15.0 15.0 0.7 1.6 13.8 15.0 10.5 9.4 15.0 15.0 15.0 14.6 12.7 5.3 5.8 4.6 14.5
15.0 15.0 15.0 15.0 15.0 15.0 15.0 11.7 8.2 15.0 15.0 15.0 15.0 15.0 15.0 15.0 15.0 15.0 15.0 15.0 15.0 15.0 15.0 15.0 15.0 15.0 15.0 15.0 8.4 0.1 0.2 0.2 15.0 15.0 15.0 12.6 15.0 15.0 15.0 13.3 5.3 15.0 4.4 4.3
15.0 15.0 15.0 15.0 15.0 15.0 10.1 13.7 15.0 15.0 15.0 15.0 15.0 15.0 15.0 14.5 6.9 15.0 15.0 15.0 15.0 15.0 15.0 15.0 15.0 15.0 15.0 15.0 4.0 0.1 0.2 0.5 15.0 15.0 15.0 15.0 10.9 4.6 7.5 0.2 3.8 12.1 15.0 4.2
15.0 15.0 15.0 13.7 0.1 3.4 15.0 15.0 15.0 15.0 15.0 15.0 15.0 15.0 15.0 0.2 0.4 15.0 15.0 15.0 15.0 15.0 15.0 15.0 15.0 15.0 15.0 11.1 0.1 0.1 0.1 2.5 15.0 15.0 15.0 11.4 11.1 15.0 6.8 7.2 5.8 6.0 12.3 6.8
11.8 2.8 5.5 11.1 15.0 15.0 15.0 15.0 15.0 15.0 15.0 15.0 15.0 15.0 15.0 15.0 15.0 15.0 15.0 6.3 9.3 15.0 15.0 15.0 15.0 15.0 15.0 0.1 1.4 0.4 0.2 0.2 4.4 15.0 15.0 11.9 5.5 9.8 5.9 6.5 6.4 8.5 10.9 0.2
15.0 15.0 15.0 15.0 15.0 15.0 15.0 14.8 15.0 15.0 15.0 15.0 15.0 5.6 13.7 15.0 15.0 15.0 9.0 8.3 15.0 15.0 15.0 15.0 15.0 15.0 3.8 1.4 9.1 0.3 0.2 0.2 2.6 15.0 7.3 11.8 10.9 4.6 4.4 1.0 6.5 3.3 3.7 5.0
15.0 15.0 15.0 15.0 15.0 15.0 15.0 15.0 15.0 15.0 15.0 15.0 6.9 15.0 15.0 14.2 13.5 12.5 0.1 0.9 15.0 15.0 15.0 13.4 14.9 15.0 15.0 14.6 2.7 0.7 0.2 0.2 1.6 2.8 2.0 10.3 15.0 6.0 5.0 15.0 15.0 5.6 5.7 0.8
15.0 15.0 15.0 15.0 15.0 15.0 15.0 15.0 15.0 15.0 15.0 15.0 15.0 15.0 0.4 0.5 0.5 1.1 15.0 15.0 15.0 13.6 14.9 15.0 15.0 15.0 14.6 4.8 1.2 0.2 0.7 0.3 0.2 0.7 2.5 3.8 0.8 0.5 1.1 12.1 15.0 15.0 14.2 8.2
15.0 15.0 15.0 15.0 15.0 15.0 15.0 15.0 15.0 15.0 15.0 15.0 15.0 15.0 15.0 15.0 14.8 0.2 0.1 15.0 15.0 15.0 0.7 15.0 10.4 15.0 11.9 1.4 0.1 0.1 0.3 2.3 1.1 0.3 0.2 0.1 0.1 0.1 0.8 0.6 11.3 15.0 12.1 13.2
15.0 15.0 15.0 15.0 15.0 15.0 15.0 15.0 15.0 15.0 15.0 15.0 15.0 15.0 15.0 15.0 15.0 15.0 15.0 0.1 1.0 1.0 6.8 15.0 15.0 15.0 10.7 7.8 7.3 9.5 1.3 0.4 0.2 0.2 0.2 0.4 0.2 0.1 0.1 0.2 0.4 7.6 14.8 6.6
15.0 15.0 15.0 15.0 15.0 15.0 15.0 15.0 15.0 15.0 15.0 15.0 15.0 15.0 15.0 15.0 0.3 15.0 0.9 1.5 0.3 0.4 2.7 10.3 15.0 13.6 9.2 5.1 1.6 2.1 1.1 0.8 2.0 2.7 0.3 0.1 0.4 0.3 0.1 0.1 0.1 0.2 1.9 15.0
15.0 15.0 15.0 15.0 15.0 15.0 15.0 15.0 15.0 15.0 5.2 0.2 0.8 15.0 15.0 15.0 4.2 0.1 0.1 0.1 0.1 0.3 2.6 9.6 7.0 15.0 15.0 13.0 12.0 13.1 15.0 14.6 4.9 1.2 0.3 0.7 0.3 0.2 0.1 0.1 0.1 0.1 0.1 2.6
15.0 6.7 15.0 15.0 15.0 15.0 15.0 10.4 7.4 11.8 15.0 7.4 3.9 15.0 15.0 5.4 0.5 0.3 0.1 0.2 0.3 0.1 0.4 7.8 14.2 8.7 5.3 4.1 2.3 1.8 1.3 0.7 1.4 3.4 5.4 1.4 0.1 0.5 0.1 0.1 0.1 0.1 0.2 0.3